Regional Weather Roundup
Issued by NWS

Home | Current Version | Previous Version | Graphics & Text | Print | Product List | Glossary On
Versions: 1 2 3 4 5 6 7 8 9 10 11 12 13 14 15 16 17 18 19 20 21 22 23 24 25 26 27 28 29 30 31 32 33 34 35 36 37 38 39 40 41 42 43 44 45 46 47 48 49 50
000
ASUS43 KLSX 231659
RWRMO

WEATHER SUMMARY FOR MISSOURI
NATIONAL WEATHER SERVICE SPRINGFIELD MO
1200 PM CDT WED JUL 23 2014

NOTE: "FAIR" INDICATES FEW OR NO CLOUDS BELOW 12,000 FEET WITH NO
       SIGNIFICANT WEATHER AND/OR OBSTRUCTIONS TO VISIBILITY.
       CURRENT SKY AND/OR WEATHER CONDITIONS ARE NOT AVAILABLE FOR
       CHILLICOTHE AND FARMINGTON.

MOZ001>031-035>038-043-044-053-054-231800-
...NORTHERN AND WESTERN MISSOURI...

CITY           SKY/WX    TMP DP  RH WIND       PRES   REMARKS
KANSAS CTY INT PTSUNNY   82  68  62 N12       30.19R
KANSAS C DTWN  MOSUNNY   86  67  52 N12       30.15S
LEE`S SUMMIT   MOSUNNY   84  67  56 N14G20    30.16R
ST JOSEPH      SUNNY     82  69  64 N8        30.20R
CHILLICOTHE      N/A     84  66  54 N8        30.18R
KIRKSVILLE     SUNNY     81  65  58 N15       30.17S

$$
MOZ066>068-077>081-088>096-101>105-231800-
...SOUTHWEST MISSOURI...

CITY           SKY/WX    TMP DP  RH WIND       PRES   REMARKS
SPRINGFIELD    CLOUDY    87  77  72 N7        30.09S HX  99
JOPLIN         CLOUDY    83  78  85 VRB6      30.10S HAZE    HX  93

$$
MOZ032>034-039>042-045>050-055>058-069>072-231800-
...CENTRAL MISSOURI...

CITY           SKY/WX    TMP DP  RH WIND       PRES   REMARKS
COLUMBIA       MOSUNNY   85  70  60 NE9       30.11R
JEFFERSON CITY MOSUNNY   86  69  56 VRB6      30.08R HX  90
ROLLA          MOSUNNY   87  72  60 N9        30.07F HX  93
SEDALIA        MOSUNNY   86  72  62 N12       30.13R HX  92
OSAGE BEACH    MOSUNNY   88  73  62 NE5       30.08F HX  96

$$
MOZ051-052-059>065-231800-
...EAST CENTRAL MISSOURI...

CITY           SKY/WX    TMP DP  RH WIND       PRES   REMARKS
ST LOUIS INTL  DRIZZLE   80  73  79 N13       30.08S
SPIRIT OF STL  CLOUDY    80  72  76 NE6       30.06S
ST CHARLES     CLOUDY    78  71  79 NE12      30.08R

$$
MOZ072>076-082>087-097>100-106>115-231800-
...SOUTH CENTRAL AND SOUTHEAST MISSOURI...

CITY           SKY/WX    TMP DP  RH WIND       PRES   REMARKS
CAPE GIRARDEAU TSTM      74  71  91 NE22G29   30.08R FOG
FARMINGTON     PTSUNNY   84  77  79 N7        30.06F HX  94
POPLAR BLUFF   CLOUDY    85  73  67 S3        30.00F HX  91
WEST PLAINS    PTSUNNY   89  78  70 N6        30.07F HX 103

$$


USA.gov is the U.S. government's official web portal to all federal, state and local government web resources and services.